Location: Korczew
(51.3586°N, 19.4491°E)
Time: 08:34:48
(UTC+00:00)

Cosmos 2208 Rocket - Pass Details

Date: 19 May 2025
Orbit: 752 x 801 km, 74.0° (Epoch: 16 June)

Event Time Altitude Azimuth Distance (km) Brightness Sun altitude
Exits shadow 20:55:04 - 211° (SSW) 2,872 6.6 -15.1°
Reaches altitude 10° 20:56:24 10° 213° (SSW) 2,357 6.2 -15.2°
Maximum altitude 21:01:45 71° 297° (WNW) 837 4.3 -15.6°
Drops below altitude 10° 21:07:05 10° 22° (NNE) 2,342 7.2 -15.9°
Sets 21:09:28 0° 24° (NNE) 3,265 7.9 -16.0°
